Location: Auttagershofen
(48.1940°N, 10.0237°E)
Time: 21:55:09
(UTC+00:00)

Lacrosse 5 rocket - Pass Details

Date: 14 April 2026
Orbit: 390 x 471 km, 57.0° (Epoch: 19 May)

Event Time Altitude Azimuth Distance (km) Brightness Sun altitude
Rises 19:27:27 0° 248° (WSW) 2,297 5.1 -12.8°
Maximum altitude 19:32:39 46° 330° (NNW) 536 1.7 -13.6°
Drops below altitude 10° 19:35:44 10° 46° (NE) 1,431 3.3 -14.0°
Enters shadow 19:37:25 - 51° (NE) 2,116 4.1 -14.2°
